AAL5608 KGSP-KDFW

Flight info

Callsign AAL5608
Flight time N/A
Altitude 34000
Route IPTAY CHOPZ THRSR MLU YUYUN BEREE3
Aircraft B738/M-SDE2E3FGHIRWXY/LB1

Departure

Time 2026-04-25 22:43
Airport Greenville-Spartanburg International Airport (KGSP)

Arrival

Time N/A
Airport Dallas Fort Worth International Airport (KDFW)
Time Latitude Longitude Altitude Speed Heading
2026-04-25 22:16 34.89047 -82.21853 956 ft 0 kts 127°
2026-04-25 22:33 34.89057 -82.21870 953 ft 4 kts 127°
2026-04-25 22:33 34.89076 -82.21892 953 ft 4 kts 158°
2026-04-25 22:33 34.89097 -82.21893 954 ft 2 kts 211°
2026-04-25 22:34 34.89098 -82.21892 954 ft 2 kts 212°
2026-04-25 22:38 34.89096 -82.21893 954 ft 5 kts 212°
2026-04-25 22:38 34.89052 -82.21928 955 ft 8 kts 212°
2026-04-25 22:39 34.89006 -82.21971 956 ft 11 kts 233°
2026-04-25 22:39 34.89011 -82.22033 955 ft 6 kts 280°
2026-04-25 22:39 34.88988 -82.22091 954 ft 15 kts 219°
2026-04-25 22:39 34.88889 -82.22169 957 ft 19 kts 213°
2026-04-25 22:40 34.88781 -82.22251 954 ft 18 kts 210°
2026-04-25 22:40 34.88680 -82.22329 956 ft 18 kts 215°
2026-04-25 22:40 34.88601 -82.22391 955 ft 19 kts 212°
2026-04-25 22:40 34.88481 -82.22482 953 ft 20 kts 212°
2026-04-25 22:41 34.88403 -82.22542 953 ft 20 kts 212°
2026-04-25 22:41 34.88251 -82.22659 948 ft 14 kts 219°
2026-04-25 22:41 34.88237 -82.22750 948 ft 5 kts 298°
2026-04-25 22:41 34.88268 -82.22803 949 ft 12 kts 306°
2026-04-25 22:42 34.88320 -82.22835 951 ft 7 kts 18°
2026-04-25 22:42 34.88405 -82.22773 952 ft 33 kts 32°
2026-04-25 22:42 34.88839 -82.22443 954 ft 113 kts 32°
2026-04-25 22:42 34.89371 -82.22041 962 ft 158 kts 31°
2026-04-25 22:43 34.90404 -82.21245 1476 ft 190 kts 33°
2026-04-25 22:43 34.91552 -82.20274 2321 ft 204 kts 36°
2026-04-25 22:43 34.92819 -82.19627 3323 ft 205 kts 358°
2026-04-25 22:43 34.94236 -82.20086 3885 ft 220 kts 325°
2026-04-25 22:44 34.95230 -82.21318 4806 ft 188 kts 294°
2026-04-25 22:44 34.95483 -82.22744 5708 ft 166 kts 262°
2026-04-25 22:44 34.95203 -82.24131 5828 ft 179 kts 248°
2026-04-25 22:44 34.94543 -82.25523 6347 ft 194 kts 232°
2026-04-25 22:45 34.93652 -82.26586 7630 ft 165 kts 221°
2026-04-25 22:45 34.92738 -82.27303 8702 ft 149 kts 212°
2026-04-25 22:45 34.91926 -82.28002 9339 ft 146 kts 225°
2026-04-25 22:45 34.91065 -82.28881 9553 ft 172 kts 222°
2026-04-25 22:46 34.90057 -82.29887 9663 ft 203 kts 222°
2026-04-25 22:46 34.88905 -82.31031 9831 ft 224 kts 222°
2026-04-25 22:46 34.87630 -82.32297 10001 ft 249 kts 222°
2026-04-25 22:46 34.86219 -82.33696 10173 ft 274 kts 221°
2026-04-25 22:47 34.84669 -82.35230 10362 ft 300 kts 221°
2026-04-25 22:47 34.82977 -82.36901 10531 ft 324 kts 221°
2026-04-25 22:47 34.81165 -82.38689 10706 ft 347 kts 221°
2026-04-25 22:47 34.79233 -82.40594 10869 ft 368 kts 221°
2026-04-25 22:48 34.77221 -82.42575 11319 ft 377 kts 221°
2026-04-25 22:48 34.75165 -82.44598 11942 ft 381 kts 221°
2026-04-25 22:48 34.73095 -82.46631 12595 ft 385 kts 221°
2026-04-25 22:48 34.70988 -82.48703 12967 ft 396 kts 221°
2026-04-25 22:49 34.68820 -82.50834 13401 ft 404 kts 221°
2026-04-25 22:49 34.66623 -82.52993 13917 ft 408 kts 221°
2026-04-25 22:49 34.64408 -82.55167 14463 ft 411 kts 221°
2026-04-25 22:49 34.62207 -82.57325 14963 ft 414 kts 221°
2026-04-25 22:50 34.59954 -82.59534 15459 ft 418 kts 221°
2026-04-25 22:50 34.57682 -82.61761 15935 ft 422 kts 221°
2026-04-25 22:50 34.55388 -82.64007 16420 ft 425 kts 221°
2026-04-25 22:50 34.53073 -82.66273 16887 ft 429 kts 221°
2026-04-25 22:51 34.50732 -82.68562 17328 ft 433 kts 221°
2026-04-25 22:51 34.48368 -82.70871 17768 ft 436 kts 221°
2026-04-25 22:51 34.45992 -82.73192 18208 ft 439 kts 221°
2026-04-25 22:51 34.43604 -82.75521 18584 ft 442 kts 221°
2026-04-25 22:52 34.41232 -82.77834 18967 ft 444 kts 221°
2026-04-25 22:52 34.38818 -82.80186 19369 ft 446 kts 221°
2026-04-25 22:52 34.36401 -82.82553 19759 ft 448 kts 223°
2026-04-25 22:52 34.34079 -82.85072 20113 ft 451 kts 220°
2026-04-25 22:53 34.31286 -82.86869 20415 ft 462 kts 199°
2026-04-25 22:53 34.28091 -82.87377 20809 ft 469 kts 178°
2026-04-25 22:53 34.24896 -82.86544 21114 ft 475 kts 159°
2026-04-25 22:53 34.22015 -82.84560 20779 ft 476 kts 141°
2026-04-25 22:54 34.19703 -82.81780 20437 ft 464 kts 127°
2026-04-25 22:54 34.18079 -82.78485 20092 ft 453 kts 111°
2026-04-25 22:54 34.17257 -82.74855 19763 ft 447 kts 94°
2026-04-25 22:54 34.17289 -82.71139 19434 ft 441 kts 78°
2026-04-25 22:55 34.18183 -82.67645 19099 ft 432 kts 59°
2026-04-25 22:55 34.20003 -82.64846 18772 ft 420 kts 37°
2026-04-25 22:55 34.22457 -82.63035 18476 ft 412 kts 22°
2026-04-25 22:55 34.25070 -82.61610 18162 ft 412 kts 21°
2026-04-25 22:56 34.27653 -82.60183 17778 ft 404 kts 22°
2026-04-25 22:56 34.30171 -82.58762 17407 ft 395 kts 22°
2026-04-25 22:56 34.32635 -82.57367 16913 ft 389 kts 22°
2026-04-25 22:56 34.35079 -82.55984 16347 ft 386 kts 22°
2026-04-25 22:57 34.37503 -82.54617 15809 ft 383 kts 22°
2026-04-25 22:57 34.39911 -82.53261 15270 ft 381 kts 22°
2026-04-25 22:57 34.42307 -82.51912 14696 ft 379 kts 22°
2026-04-25 22:57 34.44707 -82.50562 13981 ft 380 kts 23°
2026-04-25 22:58 34.47082 -82.49224 13224 ft 372 kts 23°
2026-04-25 22:58 34.49411 -82.47911 12446 ft 366 kts 23°
2026-04-25 22:58 34.51700 -82.46620 11688 ft 360 kts 23°
2026-04-25 22:58 34.53957 -82.45347 10935 ft 356 kts 23°
2026-04-25 22:59 34.56164 -82.44100 10613 ft 341 kts 23°
2026-04-25 22:59 34.58261 -82.42914 10362 ft 325 kts 23°
2026-04-25 22:59 34.60269 -82.41779 10095 ft 312 kts 23°
2026-04-25 22:59 34.62203 -82.40685 9823 ft 301 kts 23°
2026-04-25 23:00 34.64070 -82.39630 9546 ft 292 kts 22°
2026-04-25 23:00 34.65895 -82.38599 9236 ft 287 kts 22°
2026-04-25 23:00 34.67713 -82.37571 8826 ft 289 kts 23°
2026-04-25 23:00 34.69537 -82.36538 8427 ft 291 kts 22°
2026-04-25 23:01 34.71383 -82.35492 8032 ft 294 kts 22°
2026-04-25 23:01 34.73232 -82.34401 7597 ft 298 kts 29°
2026-04-25 23:01 34.74760 -82.32663 7155 ft 306 kts 54°
2026-04-25 23:01 34.75582 -82.30272 6715 ft 312 kts 80°
2026-04-25 23:02 34.75496 -82.27652 6294 ft 314 kts 107°
2026-04-25 23:02 34.74497 -82.25348 5858 ft 313 kts 133°
2026-04-25 23:02 34.72772 -82.23792 5416 ft 309 kts 160°
2026-04-25 23:02 34.70692 -82.23295 4970 ft 306 kts 184°
2026-04-25 23:03 34.68666 -82.23825 4686 ft 292 kts 204°
2026-04-25 23:03 34.66856 -82.24798 4470 ft 279 kts 207°
2026-04-25 23:03 34.65261 -82.26010 4177 ft 266 kts 229°
2026-04-25 23:03 34.64415 -82.27946 3764 ft 260 kts 257°
2026-04-25 23:04 34.64317 -82.30118 3337 ft 258 kts 277°
2026-04-25 23:04 34.64622 -82.31509 3095 ft 256 kts 292°
2026-04-25 23:04 34.66007 -82.33697 2996 ft 237 kts 321°
2026-04-25 23:04 34.67410 -82.34632 2972 ft 225 kts 337°
2026-04-25 23:05 34.68912 -82.34959 2975 ft 217 kts 356°
2026-04-25 23:05 34.70415 -82.34905 3013 ft 216 kts 359°
2026-04-25 23:05 34.71913 -82.34793 3016 ft 216 kts
2026-04-25 23:05 34.73318 -82.34181 3011 ft 215 kts 25°
2026-04-25 23:06 34.74641 -82.33316 2986 ft 217 kts 28°
2026-04-25 23:06 34.75935 -82.32368 3002 ft 214 kts 30°
2026-04-25 23:06 34.77141 -82.31442 2974 ft 194 kts 30°
2026-04-25 23:06 34.78213 -82.30614 2947 ft 174 kts 28°
2026-04-25 23:07 34.79210 -82.29848 2952 ft 168 kts 28°
2026-04-25 23:07 34.80278 -82.29026 2891 ft 194 kts 29°
2026-04-25 23:07 34.81448 -82.28126 2546 ft 199 kts 30°
2026-04-25 23:07 34.82610 -82.27234 2264 ft 194 kts 30°
2026-04-25 23:08 34.83730 -82.26375 2014 ft 185 kts 29°
2026-04-25 23:08 34.84778 -82.25568 1793 ft 170 kts 30°
2026-04-25 23:08 34.85727 -82.24838 1577 ft 152 kts 31°
2026-04-25 23:08 34.86580 -82.24184 1383 ft 142 kts 33°
2026-04-25 23:09 34.87400 -82.23555 1199 ft 137 kts 35°
2026-04-25 23:09 34.88195 -82.22929 1008 ft 136 kts 34°
2026-04-25 23:09 34.88940 -82.22364 955 ft 102 kts 32°
2026-04-25 23:09 34.89367 -82.22039 959 ft 43 kts 33°
2026-04-25 23:10 34.89492 -82.21845 964 ft 0 kts 61°
2026-04-25 23:10 34.89500 -82.21829 962 ft 4 kts 61°
2026-04-25 23:10 34.89509 -82.21807 962 ft 2 kts 61°
2026-04-25 23:10 34.89513 -82.21800 961 ft 2 kts 61°
2026-04-25 23:11 34.89553 -82.21707 961 ft 12 kts 62°
2026-04-25 23:11 34.89564 -82.21683 961 ft 6 kts 60°
2026-04-25 23:11 34.89583 -82.21649 962 ft 5 kts 51°
2026-04-25 23:11 34.89586 -82.21644 962 ft 0 kts 50°
2026-04-25 23:12 34.89575 -82.21619 963 ft 11 kts 123°
2026-04-25 23:12 34.89569 -82.21607 962 ft 0 kts 123°
2026-04-25 23:13 34.89539 -82.21573 962 ft 10 kts 158°
2026-04-25 23:13 34.89473 -82.21601 962 ft 10 kts 210°